Content
SEND FEEDBACK

Daily
Averages
Monthly
Summary
French Polynesia

FAAA, FRENCH POLYNESIA


Home > Oceania > French Polynesia
Elevation: 7 feet     Latitude: 17 33S     Longitude: 149 37W

WEATHER
 
SELECT A DAY
Number of Records: 208,134;   Date Range: 6/30/96 - 7/23/14
 
SHARE

PRINT THIS DATA

[ ← Previous Day ]
WEATHER ALMANAC - FEBRUARY 28, 2013
[ Next Day → ]
[ °C ]   °F
Weather ElementAverageHighLow
Temperature80.7 °F86 °F (10:00 am)75.2 °F (5:30 am)
Dewpoint72.1 °F75.2 °F (12:30 pm)69.8 °F (4:00 am)
Humidity74.1 %83 % (2:30 am)58 % (11:00 am)
Barometer29.89 in29.93 in (8:00 am)29.86 in (3:30 am)
Wind Speed4.2 mph10.4 mph (2:30 pm)
Weather ElementAverage
Visibility7.2 mi
Wind DirectionESE (113.2 °)

Weather ElementTotal
Precipitation---
Cooling Degree Days15.6 (Base 65)
Growing Degree Days30.6 (Base 50)
Averaged from 56 records on February 28, 2013
WEATHER CONDITIONS BREAKOUT
WIND DIRECTION BREAKOUT
WEATHER BY HOUR - FEBRUARY 28, 2013
[ °C ]   °F
Local TimeTemperatureDewpointHumidityBarometerVisibilityWind DirectionWind SpeedGust SpeedPrecipitationEventsConditions
12:30 AM78.8 °F71.6 °F78 %29.92 in6.2 miCalmMostly Cloudy
1:00 AM78.8 °F71.6 °F78 %29.92 in6.2 miEast (80°)3.5 mphMostly Cloudy
1:30 AM78.8 °F71.6 °F78 %29.89 in6.2 miEast (100°)2.3 mphScattered Clouds
2:00 AM78.0 °F72.0 °F76 %29.90 in12.0 miCalmScattered Clouds
2:00 AM78.8 °F71.6 °F78 %29.89 in6.2 miCalmScattered Clouds
2:30 AM77.0 °F71.6 °F83 %29.89 in6.2 miVariable3.5 mphScattered Clouds
3:00 AM77.0 °F71.6 °F83 %29.89 in6.2 miESE (110°)3.5 mphScattered Clouds
3:30 AM77.0 °F71.6 °F83 %29.86 in6.2 miEast (90°)4.6 mph
4:00 AM77.0 °F69.8 °F78 %29.86 in6.2 miSouth (190°)5.8 mph
4:30 AM77.0 °F69.8 °F78 %29.89 in6.2 miSouth (170°)4.6 mph
5:00 AM76.0 °F70.0 °F77 %29.89 in37.0 miESE (110°)3.5 mphClear
5:00 AM77.0 °F69.8 °F78 %29.89 in6.2 miVariable3.5 mph
5:30 AM75.2 °F69.8 °F83 %29.89 in6.2 miEast (90°)3.5 mph
6:00 AM75.2 °F69.8 °F83 %29.89 in6.2 miVariable2.3 mphPartly Cloudy
6:30 AM75.2 °F69.8 °F83 %29.89 in6.2 miVariable1.2 mphPartly Cloudy
7:00 AM78.8 °F73.4 °F83 %29.92 in6.2 miVariable2.3 mphPartly Cloudy
7:30 AM80.6 °F71.6 °F74 %29.92 in6.2 miVariable3.5 mphPartly Cloudy
8:00 AM83.0 °F73.0 °F65 %29.93 in19.0 miCalmPartly Cloudy
8:00 AM82.4 °F73.4 °F74 %29.92 in6.2 miCalmPartly Cloudy
8:30 AM84.2 °F71.6 °F66 %29.92 in6.2 miNNW (340°)2.3 mphPartly Cloudy
9:00 AM84.2 °F73.4 °F70 %29.92 in6.2 miWSW (250°)4.6 mphMostly Cloudy
9:30 AM84.2 °F73.4 °F70 %29.92 in6.2 miWSW (250°)4.6 mphMostly Cloudy
10:00 AM86.0 °F73.4 °F66 %29.92 in6.2 miWSW (240°)5.8 mphMostly Cloudy
10:30 AM84.2 °F71.6 °F66 %29.92 in6.2 miWSW (240°)5.8 mphMostly Cloudy
11:00 AM85.0 °F72.0 °F58 %29.93 in9.0 miWSW (250°)5.8 mphPartly Cloudy
11:00 AM86.0 °F73.4 °F66 %29.92 in6.2 miWSW (250°)5.8 mphMostly Cloudy
11:30 AM86.0 °F73.4 °F66 %29.92 in6.2 miNW (310°)4.6 mphMostly Cloudy
12:00 PM84.2 °F73.4 °F70 %29.89 in6.2 miWest (270°)6.9 mphMostly Cloudy
12:30 PM84.2 °F75.2 °F74 %29.89 in6.2 miSSE (150°)9.2 mphRain-ThunderstormLight Thunderstorms and Rain
1:00 PM78.8 °F71.6 °F78 %29.89 in1.2 miSouth (170°)9.2 mphRain-ThunderstormLight Thunderstorms and Rain
1:30 PM82.4 °F73.4 °F74 %29.89 in6.2 miNE (50°)4.6 mphMostly Cloudy
2:00 PM81.0 °F73.0 °F71 %29.89 in6.0 miNE (50°)9.2 mphThunderstormLight Thunderstorm
2:00 PM80.6 °F73.4 °F79 %29.89 in6.2 miNE (50°)9.2 mphMostly Cloudy
2:30 PM82.4 °F69.8 °F66 %29.86 in6.2 miENE (60°)10.4 mphMostly Cloudy
3:00 PM84.2 °F73.4 °F70 %29.86 in6.2 miNorth (10°)4.6 mphScattered Clouds
3:30 PM84.2 °F73.4 °F70 %29.86 in6.2 miNE (40°)9.2 mphScattered Clouds
4:00 PM86.0 °F71.6 °F62 %29.86 in6.2 miSSW (200°)6.9 mphMostly Cloudy
4:30 PM82.4 °F71.6 °F70 %29.86 in6.2 miVariable4.6 mphMostly Cloudy
4:40 PM82.4 °F73.4 °F74 %29.86 in6.2 miNorth (10°)4.6 mphMostly Cloudy
5:00 PM83.0 °F72.0 °F61 %29.88 in12.0 miSSW (210°)1.2 mphPartly Cloudy
5:00 PM84.2 °F71.6 °F66 %29.86 in6.2 miVariable1.2 mphMostly Cloudy
5:30 PM84.2 °F71.6 °F66 %29.86 in6.2 miSW (220°)2.3 mphMostly Cloudy
6:00 PM82.4 °F71.6 °F70 %29.86 in6.2 miSSW (210°)3.5 mphScattered Clouds
6:30 PM82.4 °F73.4 °F74 %29.89 in6.2 miSSW (200°)6.9 mphScattered Clouds
7:00 PM80.6 °F73.4 °F79 %29.89 in6.2 miSouth (190°)9.2 mphMostly Cloudy
7:30 PM80.6 °F73.4 °F79 %29.89 in6.2 miSouth (190°)5.8 mphPartly Cloudy
8:00 PM80.0 °F73.0 °F73 %29.91 in9.0 miEast (100°)2.3 mphScattered Clouds
8:00 PM80.6 °F73.4 °F79 %29.89 in6.2 miEast (100°)2.3 mphPartly Cloudy
8:30 PM78.8 °F73.4 °F83 %29.92 in6.2 miEast (90°)3.5 mphPartly Cloudy
9:00 PM78.8 °F71.6 °F78 %29.92 in6.2 miEast (90°)4.6 mphScattered Clouds
9:30 PM78.8 °F71.6 °F78 %29.92 in6.2 miEast (80°)4.6 mphScattered Clouds
10:00 PM78.8 °F71.6 °F78 %29.89 in6.2 miEast (90°)4.6 mphScattered Clouds
10:30 PM78.8 °F71.6 °F78 %29.89 in6.2 miEast (100°)3.5 mphMostly Cloudy
11:00 PM78.0 °F72.0 °F75 %29.91 in9.0 miCalmOvercast
11:00 PM78.8 °F71.6 °F78 %29.89 in6.2 miCalmMostly Cloudy
11:30 PM78.8 °F71.6 °F78 %29.89 in6.2 miVariable3.5 mphMostly Cloudy
Hourly data recorded from NTAA, located miles away from Faaa, French Polynesia







STORIES FROM OUR PARTNERS